sat.trackr.live / text

‹ back to catalog

STARLINK-37956

NORAD 69711 · 2026-147H

PAYLOAD ACTIVE UNKNOWN

§ Identity

Operator
Country
US
Launch date
2026-06-28
Launch site
AFWTR
Launch vehicle
Mass (kg)
RCS (m²)

Purposes: comms

External: N2YO · Heavens-Above · Gunter

§ Orbital elements

Epoch: 2026-09-20T01:19:27.247008Z

Period
93.91 min
Inclination
97.2838°
Eccentricity
0.0000624
Mean motion
15.33441679 rev/d
Perigee alt
465.1 km
Apogee alt
466.0 km
Semi-major
6,843.7 km
B*
5.3606e-4
RAAN
299.3897°
Arg perigee
87.5330°
Mean anomaly
272.5984°
Rev number
1,416

§ Raw data

STARLINK-379561 69711U 26147H   26263.05517647  .00017268  00000+0  53606-3 0  99942 69711  97.2838 299.3897 0000624  87.5330 272.5984 15.33441679 14160

JSON: /api/v1/satellites/69711 · /tle

For live sub-satellite position, see the globe view (requires WebGL).

§ Visibility from observer

Set your observer location to see the next 7 days of passes ≥ 10°. The values pass through the URL so the page stays shareable.

No JS? Fill the form by hand. The geolocation button needs JavaScript.